Погода в Подлопатках

Россия / Республика Бурятия     50°55′01″N   107°05′34″E
темп.,
°C
ветер,
м/с
пор.,
м/с
влажн.,
%
обл.,
%
осадки,
мм/ч
давл.,
гПа
погр.,
м
15 мая, сб
сб1523:00+6ююз22390 0.0 101711
02:00+4ю33450 0.0 101817
05:00+2ююз33520 0.0 101825
08:00+8ююз59340 0.0 1016454
11:00+15з5622100 0.0 10151461
14:00+15ссз88353 0.0 10151875
17:00+14ссз683242 0.0 10151747
20:00+10с334129 0.0 101635
16 мая, вс
вс1623:00+7ююв114787 0.0 101710
02:00+6юз22475 0.0 101710
05:00+5ююз224913 0.0 101711
08:00+11ююз46395 0.0 1015339
11:00+17юз682992 0.0 10121242
14:00+21зсз472594 0.0 10092846
17:00+16ссз9104892 0.0 10111208
20:00+13ссв33609 0.0 101073
17 мая, пн
пн1723:00+9ююв227219 0.0 100911
02:00+7юз228091 0.0 100610
05:00+7ююз228030 0.0 100515
08:00+12з2359100 0.0 1005228
11:00+13сз6859100 0.0 10061223
14:00+14ссз6756100 0.0 10061173
17:00+10с6965100 0.1 1008726
20:00+8ссз61172100 0.1 10101113
18 мая, вт
вт1823:00+5сз5107924 0.0 1013405
02:00+3сз118673 0.0 101418
05:00+4ю1180100 0.0 101411
08:00+7юв1163100 0.0 1013532
11:00+8з3366100 0.3 1012887
14:00+10юз556263 0.4 10101097
17:00+13зюз335118 0.0 10061256
20:00+11юз33615 0.0 100550
19 мая, ср
ср1923:00+7ю2277100 0.0 100420
02:00+5ююв1188100 0.2 100010
05:00+7ссв2282100 0.0 100041
08:00+9ссз487385 0.0 1002790
11:00+11ссз6761100 0.0 10041168
14:00+12ссз665561 0.1 10031281
17:00+13св22475 0.0 10001010
20:00+11ссв115595 0.0 99813